Time,TemperatureF,DewpointF,PressureIn,WindDirection,WindDirectionDegrees,WindSpeedMPH,WindSpeedGustMPH,Humidity,HourlyPrecipIn,Conditions,Clouds,dailyrainin,SoftwareType,DateUTC
2013-02-27 00:04:00,37.6,35.5,29.66,North,9,10.0,11.0,92,0.00,,,0.00,Wunderground v.1.15,2013-02-27 05:04:00,
2013-02-27 00:09:00,37.6,35.5,29.67,North,360,9.0,9.0,92,0.00,,,0.00,Wunderground v.1.15,2013-02-27 05:09:00,
2013-02-27 00:14:00,37.5,35.4,29.67,North,5,7.0,9.0,92,0.00,,,0.00,Wunderground v.1.15,2013-02-27 05:14:00,
2013-02-27 00:24:00,37.4,35.0,29.67,North,355,6.0,7.0,91,0.00,,,0.00,Wunderground v.1.15,2013-02-27 05:24:00,
2013-02-27 00:29:00,37.3,34.9,29.67,NNW,347,5.0,7.0,91,0.00,,,0.00,Wunderground v.1.15,2013-02-27 05:29:00,
2013-02-27 00:34:00,37.2,34.8,29.67,North,5,6.0,7.0,91,0.00,,,0.00,Wunderground v.1.15,2013-02-27 05:34:00,
2013-02-27 00:39:00,37.2,34.8,29.67,North,11,6.0,9.0,91,0.00,,,0.00,Wunderground v.1.15,2013-02-27 05:39:00,
2013-02-27 00:44:00,37.2,34.8,29.68,North,360,5.0,9.0,91,0.00,,,0.00,Wunderground v.1.15,2013-02-27 05:44:00,
2013-02-27 00:54:00,37.1,34.7,29.68,NNW,347,4.0,5.0,91,0.00,,,0.00,Wunderground v.1.15,2013-02-27 05:54:00,
2013-02-27 00:59:00,37.1,34.7,29.67,North,5,4.0,6.0,91,0.00,,,0.00,Wunderground v.1.15,2013-02-27 05:59:00,
2013-02-27 01:04:00,37.1,34.4,29.67,NNE,15,3.0,6.0,90,0.00,,,0.00,Wunderground v.1.15,2013-02-27 06:04:00,
2013-02-27 01:09:00,37.1,34.4,29.68,NNE,15,2.0,4.0,90,0.00,,,0.00,Wunderground v.1.15,2013-02-27 06:09:00,
2013-02-27 01:14:00,37.2,34.3,29.68,NNE,15,3.0,5.0,89,0.00,,,0.00,Wunderground v.1.15,2013-02-27 06:14:00,
2013-02-27 01:24:00,37.2,34.3,29.68,North,360,4.0,4.0,89,0.00,,,0.00,Wunderground v.1.15,2013-02-27 06:24:00,
2013-02-27 01:29:00,37.2,34.3,29.68,North,355,4.0,4.0,89,0.00,,,0.00,Wunderground v.1.15,2013-02-27 06:29:00,
2013-02-27 01:34:00,37.2,34.0,29.68,North,360,3.0,4.0,88,0.00,,,0.00,Wunderground v.1.15,2013-02-27 06:34:00,
2013-02-27 01:39:00,37.2,34.3,29.68,North,9,3.0,4.0,89,0.00,,,0.00,Wunderground v.1.15,2013-02-27 06:39:00,
2013-02-27 01:44:00,37.2,34.3,29.68,NNW,348,4.0,6.0,89,0.00,,,0.00,Wunderground v.1.15,2013-02-27 06:44:00,
2013-02-27 01:49:00,37.1,34.2,29.68,North,5,4.0,6.0,89,0.00,,,0.00,Wunderground v.1.15,2013-02-27 06:49:00,
2013-02-27 01:54:00,37.0,34.1,29.68,North,360,5.0,6.0,89,0.00,,,0.00,Wunderground v.1.15,2013-02-27 06:54:00,
2013-02-27 02:04:00,36.8,33.9,29.68,North,360,5.0,5.0,89,0.00,,,0.00,Wunderground v.1.15,2013-02-27 07:04:00,
2013-02-27 02:14:00,36.6,33.4,29.68,North,355,6.0,7.0,88,0.00,,,0.00,Wunderground v.1.15,2013-02-27 07:14:00,
2013-02-27 02:19:00,36.6,33.4,29.68,North,5,6.0,6.0,88,0.00,,,0.00,Wunderground v.1.15,2013-02-27 07:19:00,
2013-02-27 02:24:00,36.5,33.3,29.68,North,355,7.0,7.0,88,0.00,,,0.00,Wunderground v.1.15,2013-02-27 07:24:00,
2013-02-27 02:29:00,36.4,33.2,29.68,North,355,7.0,9.0,88,0.00,,,0.00,Wunderground v.1.15,2013-02-27 07:29:00,
2013-02-27 02:34:00,36.4,33.2,29.68,North,360,7.0,9.0,88,0.00,,,0.00,Wunderground v.1.15,2013-02-27 07:34:00,
2013-02-27 02:44:00,36.2,33.0,29.68,North,360,7.0,8.0,88,0.00,,,0.00,Wunderground v.1.15,2013-02-27 07:44:00,
2013-02-27 02:49:00,36.1,33.2,29.69,North,355,7.0,10.0,89,0.00,,,0.00,Wunderground v.1.15,2013-02-27 07:49:00,
2013-02-27 02:54:00,36.1,32.9,29.69,North,11,7.0,10.0,88,0.00,,,0.00,Wunderground v.1.15,2013-02-27 07:54:00,
2013-02-27 02:59:00,36.0,32.8,29.69,North,355,7.0,9.0,88,0.00,,,0.00,Wunderground v.1.15,2013-02-27 07:59:00,
2013-02-27 03:04:00,35.9,32.7,29.69,North,349,8.0,9.0,88,0.00,,,0.00,Wunderground v.1.15,2013-02-27 08:04:00,
2013-02-27 03:14:00,35.6,32.4,29.69,North,355,7.0,9.0,88,0.00,,,0.00,Wunderground v.1.15,2013-02-27 08:14:00,
2013-02-27 03:19:00,35.5,32.6,29.69,North,360,8.0,8.0,89,0.00,,,0.00,Wunderground v.1.15,2013-02-27 08:19:00,
2013-02-27 03:29:00,35.2,32.3,29.69,North,360,7.0,7.0,89,0.00,,,0.00,Wunderground v.1.15,2013-02-27 08:29:00,
2013-02-27 03:34:00,35.0,32.1,29.70,North,9,7.0,7.0,89,0.00,,,0.00,Wunderground v.1.15,2013-02-27 08:34:00,
2013-02-27 03:39:00,34.8,31.6,29.70,North,355,7.0,11.0,88,0.00,,,0.00,Wunderground v.1.15,2013-02-27 08:39:00,
2013-02-27 03:44:00,34.7,31.5,29.69,North,360,7.0,11.0,88,0.00,,,0.00,Wunderground v.1.15,2013-02-27 08:44:00,
2013-02-27 03:54:00,34.4,30.9,29.69,North,355,6.0,12.0,87,0.00,,,0.00,Wunderground v.1.15,2013-02-27 08:54:00,
2013-02-27 03:59:00,34.4,30.9,29.69,North,5,7.0,7.0,87,0.00,,,0.00,Wunderground v.1.15,2013-02-27 08:59:00,
2013-02-27 04:04:00,34.4,30.9,29.69,North,10,6.0,7.0,87,0.00,,,0.00,Wunderground v.1.15,2013-02-27 09:04:00,
2013-02-27 04:14:00,34.3,30.8,29.70,North,360,7.0,8.0,87,0.00,,,0.00,Wunderground v.1.15,2013-02-27 09:14:00,
2013-02-27 04:19:00,34.3,30.8,29.70,North,360,7.0,7.0,87,0.00,,,0.00,Wunderground v.1.15,2013-02-27 09:19:00,
2013-02-27 04:29:00,34.2,30.7,29.71,North,5,5.0,7.0,87,0.00,,,0.00,Wunderground v.1.15,2013-02-27 09:29:00,
2013-02-27 04:34:00,34.3,30.5,29.71,North,10,5.0,7.0,86,0.00,,,0.00,Wunderground v.1.15,2013-02-27 09:34:00,
2013-02-27 04:39:00,34.3,30.5,29.71,NNE,13,5.0,5.0,86,0.00,,,0.00,Wunderground v.1.15,2013-02-27 09:39:00,
2013-02-27 04:44:00,34.3,30.3,29.71,NNW,347,6.0,9.0,85,0.00,,,0.00,Wunderground v.1.15,2013-02-27 09:44:00,
2013-02-27 04:54:00,34.4,30.4,29.71,North,10,6.0,10.0,85,0.00,,,0.00,Wunderground v.1.15,2013-02-27 09:54:00,
2013-02-27 04:59:00,34.4,30.1,29.71,North,5,8.0,8.0,84,0.00,,,0.00,Wunderground v.1.15,2013-02-27 09:59:00,
2013-02-27 05:09:00,34.4,29.8,29.72,North,5,8.0,9.0,83,0.00,,,0.00,Wunderground v.1.15,2013-02-27 10:09:00,
2013-02-27 05:14:00,34.4,30.1,29.72,North,360,9.0,9.0,84,0.00,,,0.00,Wunderground v.1.15,2013-02-27 10:14:00,
2013-02-27 05:19:00,34.4,30.1,29.72,North,5,9.0,9.0,84,0.00,,,0.00,Wunderground v.1.15,2013-02-27 10:19:00,
2013-02-27 05:24:00,34.4,30.1,29.72,North,11,8.0,9.0,84,0.00,,,0.00,Wunderground v.1.15,2013-02-27 10:24:00,
2013-02-27 05:29:00,34.4,30.1,29.72,North,5,8.0,8.0,84,0.00,,,0.00,Wunderground v.1.15,2013-02-27 10:29:00,
2013-02-27 05:39:00,34.4,30.1,29.73,NNE,28,7.0,7.0,84,0.00,,,0.00,Wunderground v.1.15,2013-02-27 10:39:00,
2013-02-27 05:44:00,34.4,30.4,29.73,NNE,17,6.0,7.0,85,0.00,,,0.00,Wunderground v.1.15,2013-02-27 10:44:00,
2013-02-27 05:49:00,34.4,30.4,29.73,NNW,348,7.0,14.0,85,0.00,,,0.00,Wunderground v.1.15,2013-02-27 10:49:00,
2013-02-27 05:54:00,34.4,30.4,29.74,North,360,8.0,14.0,85,0.00,,,0.00,Wunderground v.1.15,2013-02-27 10:54:00,
2013-02-27 05:59:00,34.3,30.3,29.74,North,5,8.0,8.0,85,0.00,,,0.00,Wunderground v.1.15,2013-02-27 10:59:00,
2013-02-27 06:04:00,34.3,30.3,29.73,North,360,8.0,9.0,85,0.00,,,0.00,Wunderground v.1.15,2013-02-27 11:04:00,
2013-02-27 06:14:00,34.1,30.4,29.74,North,9,8.0,8.0,86,0.00,,,0.00,Wunderground v.1.15,2013-02-27 11:14:00,
2013-02-27 06:24:00,34.0,30.5,29.74,North,360,8.0,9.0,87,0.00,,,0.00,Wunderground v.1.15,2013-02-27 11:24:00,
2013-02-27 06:29:00,33.9,30.4,29.74,North,360,8.0,8.0,87,0.00,,,0.00,Wunderground v.1.15,2013-02-27 11:29:00,
2013-02-27 06:34:00,33.9,30.4,29.74,North,11,8.0,8.0,87,0.00,,,0.00,Wunderground v.1.15,2013-02-27 11:34:00,
2013-02-27 06:44:00,33.8,30.3,29.75,North,5,10.0,10.0,87,0.00,,,0.00,Wunderground v.1.15,2013-02-27 11:44:00,
2013-02-27 06:49:00,33.7,30.2,29.74,North,360,9.0,9.0,87,0.00,,,0.00,Wunderground v.1.15,2013-02-27 11:49:00,
2013-02-27 06:54:00,33.6,30.1,29.74,North,360,8.0,11.0,87,0.00,,,0.00,Wunderground v.1.15,2013-02-27 11:54:00,
2013-02-27 06:59:00,33.5,30.0,29.74,North,5,9.0,9.0,87,0.00,,,0.00,Wunderground v.1.15,2013-02-27 11:59:00,
2013-02-27 07:04:00,33.4,29.9,29.75,North,5,9.0,14.0,87,0.00,,,0.00,Wunderground v.1.15,2013-02-27 12:04:00,
2013-02-27 07:14:00,33.4,29.9,29.75,North,360,9.0,12.0,87,0.00,,,0.00,Wunderground v.1.15,2013-02-27 12:14:00,
2013-02-27 07:19:00,33.4,29.7,29.76,North,355,9.0,12.0,86,0.00,,,0.00,Wunderground v.1.15,2013-02-27 12:19:00,
2013-02-27 07:24:00,33.5,29.8,29.75,North,360,9.0,12.0,86,0.00,,,0.00,Wunderground v.1.15,2013-02-27 12:24:00,
2013-02-27 07:29:00,33.5,29.8,29.75,NNE,15,8.0,8.0,86,0.00,,,0.00,Wunderground v.1.15,2013-02-27 12:29:00,
2013-02-27 07:39:00,33.4,29.4,29.76,North,360,8.0,8.0,85,0.00,,,0.00,Wunderground v.1.15,2013-02-27 12:39:00,
2013-02-27 07:44:00,33.4,29.4,29.76,North,355,9.0,9.0,85,0.00,,,0.00,Wunderground v.1.15,2013-02-27 12:44:00,
2013-02-27 07:54:00,33.5,29.2,29.77,North,5,8.0,8.0,84,0.00,,,0.00,Wunderground v.1.15,2013-02-27 12:54:00,
2013-02-27 07:59:00,33.6,29.3,29.78,North,5,8.0,8.0,84,0.00,,,0.00,Wunderground v.1.15,2013-02-27 12:59:00,
2013-02-27 08:04:00,33.7,29.1,29.79,North,5,6.0,8.0,83,0.00,,,0.00,Wunderground v.1.15,2013-02-27 13:04:00,
2013-02-27 08:14:00,33.8,29.2,29.79,North,5,6.0,7.0,83,0.00,,,0.00,Wunderground v.1.15,2013-02-27 13:14:00,
2013-02-27 08:19:00,33.9,29.0,29.78,North,9,6.0,6.0,82,0.00,,,0.00,Wunderground v.1.15,2013-02-27 13:19:00,
2013-02-27 08:24:00,33.9,29.3,29.79,North,355,6.0,7.0,83,0.00,,,0.00,Wunderground v.1.15,2013-02-27 13:24:00,
2013-02-27 08:29:00,33.8,28.9,29.79,North,5,6.0,6.0,82,0.00,,,0.00,Wunderground v.1.15,2013-02-27 13:29:00,
2013-02-27 08:34:00,33.7,28.8,29.79,North,5,6.0,6.0,82,0.00,,,0.00,Wunderground v.1.15,2013-02-27 13:34:00,
2013-02-27 08:39:00,33.6,28.7,29.79,North,5,4.0,4.0,82,0.00,,,0.00,Wunderground v.1.15,2013-02-27 13:39:00,
2013-02-27 08:49:00,33.4,28.5,29.79,North,10,4.0,4.0,82,0.00,,,0.00,Wunderground v.1.15,2013-02-27 13:49:00,
2013-02-27 08:54:00,33.4,28.8,29.79,North,11,5.0,5.0,83,0.00,,,0.00,Wunderground v.1.15,2013-02-27 13:54:00,
2013-02-27 08:59:00,33.4,28.8,29.80,NNE,17,5.0,5.0,83,0.00,,,0.00,Wunderground v.1.15,2013-02-27 13:59:00,
2013-02-27 09:04:00,33.4,28.8,29.79,NNE,12,5.0,5.0,83,0.00,,,0.00,Wunderground v.1.15,2013-02-27 14:04:00,
2013-02-27 09:14:00,33.6,28.7,29.79,North,11,5.0,7.0,82,0.00,,,0.00,Wunderground v.1.15,2013-02-27 14:14:00,
2013-02-27 09:19:00,33.7,28.8,29.79,North,355,6.0,7.0,82,0.00,,,0.00,Wunderground v.1.15,2013-02-27 14:19:00,
2013-02-27 09:24:00,34.0,29.1,29.79,North,360,6.0,7.0,82,0.00,,,0.00,Wunderground v.1.15,2013-02-27 14:24:00,
2013-02-27 09:34:00,34.4,29.5,29.80,NNE,15,6.0,8.0,82,0.00,,,0.00,Wunderground v.1.15,2013-02-27 14:34:00,
2013-02-27 09:39:00,34.5,29.3,29.81,North,355,7.0,9.0,81,0.00,,,0.00,Wunderground v.1.15,2013-02-27 14:39:00,
2013-02-27 09:44:00,34.7,29.2,29.81,North,360,7.0,9.0,80,0.00,,,0.00,Wunderground v.1.15,2013-02-27 14:44:00,
2013-02-27 09:49:00,34.9,29.4,29.81,North,355,8.0,8.0,80,0.00,,,0.00,Wunderground v.1.15,2013-02-27 14:49:00,
2013-02-27 09:54:00,35.4,29.8,29.81,North,360,8.0,8.0,80,0.00,,,0.00,Wunderground v.1.15,2013-02-27 14:54:00,
2013-02-27 10:04:00,36.0,29.8,29.81,North,360,7.0,8.0,78,0.00,,,0.00,Wunderground v.1.15,2013-02-27 15:04:00,
2013-02-27 10:14:00,36.7,30.2,29.81,North,355,7.0,7.0,77,0.00,,,0.00,Wunderground v.1.15,2013-02-27 15:14:00,
2013-02-27 10:19:00,37.1,30.9,29.80,North,355,8.0,8.0,78,0.00,,,0.00,Wunderground v.1.15,2013-02-27 15:19:00,
2013-02-27 10:24:00,37.6,30.7,29.80,North,360,7.0,8.0,76,0.00,,,0.00,Wunderground v.1.15,2013-02-27 15:24:00,
2013-02-27 10:34:00,38.8,32.8,29.81,North,351,4.0,5.0,79,0.00,,,0.00,Wunderground v.1.15,2013-02-27 15:34:00,
2013-02-27 10:39:00,39.2,31.6,29.81,NNW,348,5.0,7.0,74,0.00,,,0.00,Wunderground v.1.15,2013-02-27 15:39:00,
2013-02-27 10:44:00,38.9,32.0,29.81,North,355,7.0,7.0,76,0.00,,,0.00,Wunderground v.1.15,2013-02-27 15:44:00,
2013-02-27 10:49:00,38.7,31.8,29.81,North,350,7.0,7.0,76,0.00,,,0.00,Wunderground v.1.15,2013-02-27 15:49:00,
2013-02-27 10:59:00,39.6,32.3,29.81,North,355,6.0,7.0,75,0.00,,,0.00,Wunderground v.1.15,2013-02-27 15:59:00,
2013-02-27 11:04:00,40.3,33.7,29.81,North,351,6.0,9.0,77,0.00,,,0.00,Wunderground v.1.15,2013-02-27 16:04:00,
2013-02-27 11:14:00,41.1,34.1,29.82,NNW,338,6.0,8.0,76,0.00,,,0.00,Wunderground v.1.15,2013-02-27 16:14:00,
2013-02-27 11:19:00,41.3,33.6,29.81,North,355,5.0,5.0,74,0.00,,,0.00,Wunderground v.1.15,2013-02-27 16:19:00,
2013-02-27 11:24:00,41.8,34.8,29.81,NNW,348,6.0,8.0,76,0.00,,,0.00,Wunderground v.1.15,2013-02-27 16:24:00,
2013-02-27 11:29:00,42.2,34.5,29.81,NNW,336,6.0,6.0,74,0.00,,,0.00,Wunderground v.1.15,2013-02-27 16:29:00,
2013-02-27 11:39:00,41.9,33.5,29.81,NNW,346,4.0,4.0,72,0.00,,,0.00,Wunderground v.1.15,2013-02-27 16:39:00,
2013-02-27 11:44:00,42.4,34.7,29.81,North,349,4.0,6.0,74,0.00,,,0.00,Wunderground v.1.15,2013-02-27 16:44:00,
2013-02-27 11:49:00,42.7,34.6,29.80,North,350,5.0,5.0,73,0.00,,,0.00,Wunderground v.1.15,2013-02-27 16:49:00,
2013-02-27 11:54:00,42.2,34.2,29.80,North,350,6.0,6.0,73,0.00,,,0.00,Wunderground v.1.15,2013-02-27 16:54:00,
2013-02-27 11:59:00,42.3,34.3,29.80,North,355,6.0,6.0,73,0.00,,,0.00,Wunderground v.1.15,2013-02-27 16:59:00,
2013-02-27 12:04:00,42.4,33.3,29.81,NW,322,5.0,6.0,70,0.00,,,0.00,Wunderground v.1.15,2013-02-27 17:04:00,
2013-02-27 12:14:00,43.3,33.4,29.80,NNW,346,3.0,3.0,68,0.00,,,0.00,Wunderground v.1.15,2013-02-27 17:14:00,
2013-02-27 12:19:00,43.7,34.9,29.80,North,349,2.0,2.0,71,0.00,,,0.00,Wunderground v.1.15,2013-02-27 17:19:00,
2013-02-27 12:24:00,44.4,34.5,29.80,NNW,338,2.0,2.0,68,0.00,,,0.00,Wunderground v.1.15,2013-02-27 17:24:00,
2013-02-27 12:29:00,44.3,34.4,29.80,NW,326,2.0,2.0,68,0.00,,,0.00,Wunderground v.1.15,2013-02-27 17:29:00,
2013-02-27 12:34:00,44.9,35.7,29.80,NW,320,2.0,2.0,70,0.00,,,0.00,Wunderground v.1.15,2013-02-27 17:34:00,
2013-02-27 12:39:00,44.7,35.9,29.79,North,10,2.0,4.0,71,0.00,,,0.00,Wunderground v.1.15,2013-02-27 17:39:00,
2013-02-27 12:44:00,45.0,35.8,29.78,NNW,327,3.0,4.0,70,0.00,,,0.00,Wunderground v.1.15,2013-02-27 17:44:00,
2013-02-27 12:54:00,45.9,36.3,29.79,North,349,3.0,5.0,69,0.00,,,0.00,Wunderground v.1.15,2013-02-27 17:54:00,
2013-02-27 12:59:00,46.0,34.9,29.79,NNW,337,3.0,6.0,65,0.00,,,0.00,Wunderground v.1.15,2013-02-27 17:59:00,
2013-02-27 13:04:00,46.1,36.5,29.78,NNW,346,4.0,6.0,69,0.00,,,0.00,Wunderground v.1.15,2013-02-27 18:04:00,
2013-02-27 13:14:00,46.0,35.3,29.77,NW,323,3.0,5.0,66,0.00,,,0.00,Wunderground v.1.15,2013-02-27 18:14:00,
2013-02-27 13:19:00,47.3,36.1,29.78,North,355,3.0,5.0,65,0.00,,,0.00,Wunderground v.1.15,2013-02-27 18:19:00,
2013-02-27 13:24:00,47.3,36.1,29.78,NNW,345,4.0,5.0,65,0.00,,,0.00,Wunderground v.1.15,2013-02-27 18:24:00,
2013-02-27 13:29:00,47.6,36.8,29.77,NNW,337,3.0,3.0,66,0.00,,,0.00,Wunderground v.1.15,2013-02-27 18:29:00,
2013-02-27 13:39:00,46.2,34.7,29.77,NW,320,1.0,2.0,64,0.00,,,0.00,Wunderground v.1.15,2013-02-27 18:39:00,
2013-02-27 13:44:00,46.7,35.6,29.77,NNW,335,2.0,2.0,65,0.00,,,0.00,Wunderground v.1.15,2013-02-27 18:44:00,
2013-02-27 13:54:00,48.2,38.1,29.76,NNW,345,2.0,4.0,68,0.00,,,0.00,Wunderground v.1.15,2013-02-27 18:54:00,
2013-02-27 13:59:00,48.3,36.3,29.76,NNW,342,3.0,4.0,63,0.00,,,0.00,Wunderground v.1.15,2013-02-27 18:59:00,
2013-02-27 14:04:00,48.4,36.8,29.76,NNW,338,3.0,4.0,64,0.00,,,0.00,Wunderground v.1.15,2013-02-27 19:04:00,
2013-02-27 14:14:00,48.9,36.0,29.75,WNW,300,3.0,4.0,61,0.00,,,0.00,Wunderground v.1.15,2013-02-27 19:14:00,
2013-02-27 14:19:00,49.6,37.5,29.76,North,350,2.0,2.0,63,0.00,,,0.00,Wunderground v.1.15,2013-02-27 19:19:00,
2013-02-27 14:29:00,50.6,37.6,29.75,NNW,334,2.0,4.0,61,0.00,,,0.00,Wunderground v.1.15,2013-02-27 19:29:00,
2013-02-27 14:34:00,50.3,36.9,29.75,NW,324,3.0,4.0,60,0.00,,,0.00,Wunderground v.1.15,2013-02-27 19:34:00,
2013-02-27 14:39:00,49.4,36.5,29.75,NNW,327,3.0,5.0,61,0.00,,,0.00,Wunderground v.1.15,2013-02-27 19:39:00,
2013-02-27 14:49:00,49.6,36.3,29.75,NNW,340,4.0,4.0,60,0.00,,,0.00,Wunderground v.1.15,2013-02-27 19:49:00,
2013-02-27 14:54:00,50.3,36.9,29.75,NNW,348,4.0,4.0,60,0.00,,,0.00,Wunderground v.1.15,2013-02-27 19:54:00,
2013-02-27 14:59:00,50.7,36.0,29.75,NNW,340,4.0,5.0,57,0.00,,,0.00,Wunderground v.1.15,2013-02-27 19:59:00,
2013-02-27 15:04:00,51.0,38.4,29.75,NNW,329,4.0,5.0,62,0.00,,,0.00,Wunderground v.1.15,2013-02-27 20:04:00,
2013-02-27 15:14:00,52.2,38.3,29.75,North,349,4.0,4.0,59,0.00,,,0.00,Wunderground v.1.15,2013-02-27 20:14:00,
2013-02-27 15:19:00,52.2,38.3,29.75,NNW,342,4.0,6.0,59,0.00,,,0.00,Wunderground v.1.15,2013-02-27 20:19:00,
2013-02-27 15:24:00,52.5,37.2,29.75,NW,319,4.0,6.0,56,0.00,,,0.00,Wunderground v.1.15,2013-02-27 20:24:00,
2013-02-27 15:29:00,52.3,37.5,29.75,NNW,347,4.0,5.0,57,0.00,,,0.00,Wunderground v.1.15,2013-02-27 20:29:00,
2013-02-27 15:39:00,52.5,37.2,29.75,North,355,4.0,5.0,56,0.00,,,0.00,Wunderground v.1.15,2013-02-27 20:39:00,
2013-02-27 15:44:00,52.7,39.2,29.74,North,355,4.0,5.0,60,0.00,,,0.00,Wunderground v.1.15,2013-02-27 20:44:00,
2013-02-27 15:49:00,53.0,39.0,29.74,NNW,337,3.0,3.0,59,0.00,,,0.00,Wunderground v.1.15,2013-02-27 20:49:00,
2013-02-27 15:54:00,52.9,37.6,29.74,NNW,339,2.0,4.0,56,0.00,,,0.00,Wunderground v.1.15,2013-02-27 20:54:00,
2013-02-27 15:59:00,53.3,39.8,29.74,NNW,348,4.0,6.0,60,0.00,,,0.00,Wunderground v.1.15,2013-02-27 20:59:00,
2013-02-27 16:09:00,53.6,39.2,29.74,North,360,5.0,7.0,58,0.00,,,0.00,Wunderground v.1.15,2013-02-27 21:09:00,
2013-02-27 16:14:00,53.5,39.5,29.74,NNW,339,3.0,7.0,59,0.00,,,0.00,Wunderground v.1.15,2013-02-27 21:14:00,
2013-02-27 16:19:00,53.4,38.1,29.74,NNW,348,3.0,5.0,56,0.00,,,0.00,Wunderground v.1.15,2013-02-27 21:19:00,
2013-02-27 16:24:00,53.3,38.4,29.74,NNW,347,4.0,6.0,57,0.00,,,0.00,Wunderground v.1.15,2013-02-27 21:24:00,
2013-02-27 16:29:00,53.4,39.0,29.74,North,355,5.0,5.0,58,0.00,,,0.00,Wunderground v.1.15,2013-02-27 21:29:00,
2013-02-27 16:34:00,53.4,38.1,29.74,North,355,5.0,5.0,56,0.00,,,0.00,Wunderground v.1.15,2013-02-27 21:34:00,
2013-02-27 16:44:00,52.9,38.5,29.74,NNW,344,5.0,9.0,58,0.00,,,0.00,Wunderground v.1.15,2013-02-27 21:44:00,
2013-02-27 16:49:00,52.8,37.5,29.74,NNW,329,4.0,4.0,56,0.00,,,0.00,Wunderground v.1.15,2013-02-27 21:49:00,
2013-02-27 16:54:00,51.9,38.0,29.74,North,355,3.0,5.0,59,0.00,,,0.00,Wunderground v.1.15,2013-02-27 21:54:00,
2013-02-27 16:59:00,52.0,38.1,29.74,North,355,5.0,7.0,59,0.00,,,0.00,Wunderground v.1.15,2013-02-27 21:59:00,
2013-02-27 17:09:00,52.1,37.3,29.74,North,350,5.0,7.0,57,0.00,,,0.00,Wunderground v.1.15,2013-02-27 22:09:00,
2013-02-27 17:19:00,51.4,36.2,29.73,NNE,23,6.0,6.0,56,0.00,,,0.00,Wunderground v.1.15,2013-02-27 22:19:00,
2013-02-27 17:24:00,51.1,36.4,29.74,North,355,3.0,7.0,57,0.00,,,0.00,Wunderground v.1.15,2013-02-27 22:24:00,
2013-02-27 17:29:00,50.9,35.7,29.74,North,355,3.0,6.0,56,0.00,,,0.00,Wunderground v.1.15,2013-02-27 22:29:00,
2013-02-27 17:34:00,50.4,35.7,29.74,North,360,5.0,6.0,57,0.00,,,0.00,Wunderground v.1.15,2013-02-27 22:34:00,
2013-02-27 17:39:00,50.0,35.8,29.74,NNW,344,5.0,5.0,58,0.00,,,0.00,Wunderground v.1.15,2013-02-27 22:39:00,
2013-02-27 17:49:00,49.4,35.7,29.74,NNE,12,3.0,3.0,59,0.00,,,0.00,Wunderground v.1.15,2013-02-27 22:49:00,
2013-02-27 17:54:00,49.0,35.3,29.74,North,360,2.0,3.0,59,0.00,,,0.00,Wunderground v.1.15,2013-02-27 22:54:00,
2013-02-27 17:59:00,48.5,34.8,29.74,NNE,15,1.0,1.0,59,0.00,,,0.00,Wunderground v.1.15,2013-02-27 22:59:00,
2013-02-27 18:04:00,48.1,34.9,29.74,North,355,1.0,4.0,60,0.00,,,0.00,Wunderground v.1.15,2013-02-27 23:04:00,
2013-02-27 18:14:00,47.0,34.2,29.75,North,360,3.0,3.0,61,0.00,,,0.00,Wunderground v.1.15,2013-02-27 23:14:00,
2013-02-27 18:19:00,46.3,33.6,29.74,North,360,4.0,4.0,61,0.00,,,0.00,Wunderground v.1.15,2013-02-27 23:19:00,
2013-02-27 18:24:00,45.7,33.4,29.75,North,355,5.0,9.0,62,0.00,,,0.00,Wunderground v.1.15,2013-02-27 23:24:00,
2013-02-27 18:29:00,45.1,33.2,29.75,North,360,6.0,7.0,63,0.00,,,0.00,Wunderground v.1.15,2013-02-27 23:29:00,
2013-02-27 18:34:00,44.6,33.2,29.76,North,355,8.0,8.0,64,0.00,,,0.00,Wunderground v.1.15,2013-02-27 23:34:00,
2013-02-27 18:39:00,44.0,33.0,29.76,North,351,8.0,8.0,65,0.00,,,0.00,Wunderground v.1.15,2013-02-27 23:39:00,
2013-02-27 18:44:00,43.5,32.9,29.76,North,5,8.0,12.0,66,0.00,,,0.00,Wunderground v.1.15,2013-02-27 23:44:00,
2013-02-27 18:54:00,42.6,32.8,29.77,North,350,7.0,15.0,68,0.00,,,0.00,Wunderground v.1.15,2013-02-27 23:54:00,
2013-02-27 18:59:00,42.2,32.4,29.77,North,9,7.0,7.0,68,0.00,,,0.00,Wunderground v.1.15,2013-02-27 23:59:00,
2013-02-27 19:09:00,41.7,32.3,29.76,North,355,5.0,6.0,69,0.00,,,0.00,Wunderground v.1.15,2013-02-28 00:09:00,
2013-02-27 19:14:00,41.5,32.4,29.76,North,11,4.0,6.0,70,0.00,,,0.00,Wunderground v.1.15,2013-02-28 00:14:00,
2013-02-27 19:24:00,41.1,32.1,29.76,NNE,25,4.0,4.0,70,0.00,,,0.00,Wunderground v.1.15,2013-02-28 00:24:00,
2013-02-27 19:29:00,40.9,32.2,29.75,NNE,22,3.0,4.0,71,0.00,,,0.00,Wunderground v.1.15,2013-02-28 00:29:00,
2013-02-27 19:39:00,40.7,32.0,29.75,North,5,4.0,4.0,71,0.00,,,0.00,Wunderground v.1.15,2013-02-28 00:39:00,
2013-02-27 19:44:00,40.6,31.9,29.75,NNE,15,4.0,4.0,71,0.00,,,0.00,Wunderground v.1.15,2013-02-28 00:44:00,
2013-02-27 19:49:00,40.6,31.9,29.75,NNE,13,3.0,3.0,71,0.00,,,0.00,Wunderground v.1.15,2013-02-28 00:49:00,
2013-02-27 19:54:00,40.6,31.9,29.76,North,5,3.0,4.0,71,0.00,,,0.00,Wunderground v.1.15,2013-02-28 00:54:00,
2013-02-27 19:59:00,40.6,31.9,29.76,North,5,3.0,3.0,71,0.00,,,0.00,Wunderground v.1.15,2013-02-28 00:59:00,
2013-02-27 20:04:00,40.5,31.8,29.76,North,5,3.0,4.0,71,0.00,,,0.00,Wunderground v.1.15,2013-02-28 01:04:00,
2013-02-27 20:14:00,40.4,32.1,29.77,North,10,7.0,7.0,72,0.00,,,0.00,Wunderground v.1.15,2013-02-28 01:14:00,
2013-02-27 20:19:00,40.3,32.0,29.77,North,360,9.0,9.0,72,0.00,,,0.00,Wunderground v.1.15,2013-02-28 01:19:00,
2013-02-27 20:24:00,40.1,32.1,29.77,North,360,9.0,9.0,73,0.00,,,0.00,Wunderground v.1.15,2013-02-28 01:24:00,
2013-02-27 20:29:00,39.9,32.9,29.77,North,5,9.0,9.0,76,0.00,,,0.00,Wunderground v.1.15,2013-02-28 01:29:00,
2013-02-27 20:34:00,39.5,33.2,29.78,North,355,9.0,10.0,78,0.00,,,0.00,Wunderground v.1.15,2013-02-28 01:34:00,
2013-02-27 20:44:00,38.7,33.7,29.78,North,355,9.0,9.0,82,0.00,,,0.00,Wunderground v.1.15,2013-02-28 01:44:00,
2013-02-27 20:54:00,37.8,33.7,29.79,North,360,10.0,11.0,85,0.00,,,0.00,Wunderground v.1.15,2013-02-28 01:54:00,
2013-02-27 20:59:00,37.5,34.0,29.79,NNW,348,9.0,11.0,87,0.00,,,0.00,Wunderground v.1.15,2013-02-28 01:59:00,
2013-02-27 21:04:00,37.1,33.9,29.79,North,355,9.0,12.0,88,0.00,,,0.01,Wunderground v.1.15,2013-02-28 02:04:00,
2013-02-27 21:14:00,36.5,33.6,29.79,North,360,7.0,10.0,89,0.06,,,0.02,Wunderground v.1.15,2013-02-28 02:14:00,
2013-02-27 21:19:00,36.1,33.5,29.79,North,360,7.0,7.0,90,0.06,,,0.02,Wunderground v.1.15,2013-02-28 02:19:00,
2013-02-27 21:29:00,35.5,33.4,29.78,North,360,8.0,8.0,92,0.05,,,0.03,Wunderground v.1.15,2013-02-28 02:29:00,
2013-02-27 21:34:00,35.3,33.2,29.79,North,349,8.0,13.0,92,0.10,,,0.04,Wunderground v.1.15,2013-02-28 02:34:00,
2013-02-27 21:39:00,35.1,33.3,29.79,North,5,8.0,8.0,93,0.07,,,0.04,Wunderground v.1.15,2013-02-28 02:39:00,
2013-02-27 21:44:00,34.9,33.1,29.79,North,355,7.0,14.0,93,0.04,,,0.04,Wunderground v.1.15,2013-02-28 02:44:00,
2013-02-27 21:49:00,34.6,32.8,29.78,North,360,7.0,7.0,93,0.00,,,0.04,Wunderground v.1.15,2013-02-28 02:49:00,
2013-02-27 21:54:00,34.4,32.9,29.78,North,360,5.0,7.0,94,0.00,,,0.05,Wunderground v.1.15,2013-02-28 02:54:00,
2013-02-27 22:04:00,34.4,32.9,29.79,North,5,5.0,7.0,94,0.00,,,0.05,Wunderground v.1.15,2013-02-28 03:04:00,
2013-02-27 22:14:00,34.4,33.1,29.79,North,5,4.0,5.0,95,0.00,,,0.06,Wunderground v.1.15,2013-02-28 03:14:00,
2013-02-27 22:19:00,34.3,33.0,29.79,North,360,4.0,6.0,95,0.00,,,0.06,Wunderground v.1.15,2013-02-28 03:19:00,
2013-02-27 22:29:00,34.4,33.1,29.78,North,5,3.0,3.0,95,0.00,,,0.06,Wunderground v.1.15,2013-02-28 03:29:00,
2013-02-27 22:39:00,34.4,33.1,29.78,North,5,4.0,4.0,95,0.00,,,0.06,Wunderground v.1.15,2013-02-28 03:39:00,
2013-02-27 22:44:00,34.4,33.1,29.78,North,5,5.0,5.0,95,0.00,,,0.06,Wunderground v.1.15,2013-02-28 03:44:00,
2013-02-27 22:49:00,34.4,33.1,29.78,North,5,5.0,5.0,95,0.00,,,0.06,Wunderground v.1.15,2013-02-28 03:49:00,
2013-02-27 22:54:00,34.4,33.1,29.78,NNE,12,4.0,5.0,95,0.00,,,0.06,Wunderground v.1.15,2013-02-28 03:54:00,
2013-02-27 22:59:00,34.4,33.1,29.78,NNW,327,4.0,7.0,95,0.00,,,0.06,Wunderground v.1.15,2013-02-28 03:59:00,
2013-02-27 23:09:00,34.4,33.1,29.77,North,360,4.0,4.0,95,0.00,,,0.06,Wunderground v.1.15,2013-02-28 04:09:00,
2013-02-27 23:14:00,34.4,33.1,29.77,North,5,3.0,5.0,95,0.00,,,0.06,Wunderground v.1.15,2013-02-28 04:14:00,
2013-02-27 23:19:00,34.4,33.1,29.77,North,11,4.0,4.0,95,0.00,,,0.06,Wunderground v.1.15,2013-02-28 04:19:00,
2013-02-27 23:24:00,34.4,33.1,29.77,North,5,4.0,4.0,95,0.00,,,0.06,Wunderground v.1.15,2013-02-28 04:24:00,
2013-02-27 23:29:00,34.3,33.0,29.77,North,360,5.0,5.0,95,0.00,,,0.06,Wunderground v.1.15,2013-02-28 04:29:00,
2013-02-27 23:34:00,34.3,33.0,29.77,NNE,15,6.0,6.0,95,0.00,,,0.06,Wunderground v.1.15,2013-02-28 04:34:00,
2013-02-27 23:44:00,34.2,32.9,29.77,North,349,7.0,12.0,95,0.00,,,0.06,Wunderground v.1.15,2013-02-28 04:44:00,
2013-02-27 23:49:00,34.2,32.7,29.77,North,360,8.0,8.0,94,0.00,,,0.06,Wunderground v.1.15,2013-02-28 04:49:00,
2013-02-27 23:54:00,34.2,32.7,29.76,NNW,346,8.0,12.0,94,0.00,,,0.06,Wunderground v.1.15,2013-02-28 04:54:00,